Location: Ciserano
(45.5833°N, 9.6000°E)
Time: 12:56:09
(UTC+00:00)

COSMOS 2406 - Pass Details

Date: 29 November 2020
Orbit: 840 x 866 km, 71.0° (Epoch: 25 January)

Event Time Altitude Azimuth Distance (km) Brightness Sun altitude
Exits shadow 05:18:21 - 339° (NNW) 3,125 5.8 -13.8°
Reaches altitude 10° 05:20:05 10° 344° (NNW) 2,502 5.3 -13.5°
Maximum altitude 05:25:34 44° 56° (ENE) 1,185 4.3 -12.6°
Drops below altitude 10° 05:31:02 10° 128° (SE) 2,502 6.9 -11.7°
Sets 05:33:37 0° 135° (SE) 3,437 7.7 -11.3°
